Waynesville, MO

6:51 AM CDT on July 29, 2016 (GMT -0500)
Waynesville Regional At Forney Field

Weather History for KTBN - April, 2013

Change the Weather History Date:

Friday, April 19, 2013

  Actual Average Record
Temperature  
Mean Temperature 43 °F -  
Max Temperature 52 °F 66 °F 88 °F (2011)
Min Temperature 35 °F 49 °F 35 °F (2013)
Degree Days  
Heating Degree Days 22    
Moisture  
Dew Point 25 °F    
Average Humidity 56    
Maximum Humidity 75    
Minimum Humidity 26    
Precipitation  
Precipitation 0.00 in - - ()
Sea Level Pressure  
Sea Level Pressure 29.96 in    
Wind  
Wind Speed 12 mph (West)    
Max Wind Speed 18 mph    
Max Gust Speed 34 mph    
Visibility 10 miles    
Events Snow    
Averages and records for this station are not official NWS values.
T = Trace of Precipitation, MM = Missing Value Source: NWS Daily Summary

Daily Weather History Graph

Daily Weather History Graph

Search for Another Location

Airport or City:

Trip Planner

Search our weather history database for the weather conditions in past years. The results will help you decide how hot, cold, wet, or windy it might be!

Date:

Astronomy

Apr. 19, 2013 Rise Set
Actual Time 6:27 AM CDT 7:48 PM CDT
Civil Twilight 6:00 AM CDT 8:15 PM CDT
Nautical Twilight 5:27 AM CDT 8:48 PM CDT
Astronomical Twilight 4:53 AM CDT 9:22 PM CDT
Moon 1:39 PM CDT (4/19) 2:36 AM CDT (4/19)
Length of Visible Light 14h 15m
Length of Day
13h 20m
First Quarter, 62% of the Moon is Illuminated
Apr 19
First Quarter
Apr 25
Full
May 2
Last Quarter
May 9
New
May 17
First Quarter

Hourly Weather History & Observations

Time (CDT) Temp. Windchill Dew Point Humidity Pressure Visibility Wind Dir Wind Speed Gust Speed Precip Events Conditions
12:13 AM 39.2 °F 32.5 °F 30.2 °F 70% 29.86 in 10.0 mi West 10.4 mph 19.6 mph N/A   Overcast
12:23 AM 39.2 °F 33.0 °F 32.0 °F 75% 29.86 in 10.0 mi West 9.2 mph 19.6 mph N/A   Overcast
12:58 AM 38.8 °F 31.2 °F 30.4 °F 72% 29.89 in 10.0 mi WNW 12.7 mph 21.9 mph N/A   Overcast
1:28 AM 39.2 °F 32.0 °F 28.4 °F 65% 29.87 in 10.0 mi West 11.5 mph 25.3 mph N/A   Overcast
1:58 AM 37.9 °F 30.0 °F 27.9 °F 67% 29.89 in 10.0 mi West 12.7 mph - N/A   Overcast
2:53 AM 37.4 °F 29.8 °F 28.4 °F 70% 29.86 in 10.0 mi WNW 11.5 mph - N/A   Overcast
2:58 AM 37.2 °F 28.7 °F 28.9 °F 72% 29.89 in 10.0 mi West 13.8 mph 20.7 mph N/A   Overcast
3:03 AM 37.4 °F 29.8 °F 28.4 °F 70% 29.86 in 10.0 mi West 11.5 mph 20.7 mph N/A   Overcast
3:08 AM 37.4 °F 29.3 °F 28.4 °F 70% 29.86 in 10.0 mi West 12.7 mph 20.7 mph N/A   Overcast
3:58 AM 36.7 °F 29.4 °F 27.9 °F 70% 29.90 in 10.0 mi West 10.4 mph 18.4 mph N/A   Overcast
4:58 AM 36.3 °F 27.5 °F 27.0 °F 69% 29.89 in 10.0 mi West 13.8 mph - N/A   Overcast
5:58 AM 36.3 °F 28.9 °F 26.8 °F 68% 29.91 in 10.0 mi West 10.4 mph 18.4 mph N/A   Overcast
6:58 AM 35.6 °F 27.1 °F 26.1 °F 68% 29.94 in 10.0 mi West 12.7 mph - N/A   Overcast
7:58 AM 35.4 °F 26.8 °F 26.2 °F 69% 29.97 in 10.0 mi West 12.7 mph - N/A   Overcast
8:04 AM 35.6 °F 25.5 °F 26.6 °F 70% 29.94 in 10.0 mi West 17.3 mph 20.7 mph N/A   Overcast
8:08 AM 35.6 °F 27.1 °F 26.6 °F 70% 29.94 in 10.0 mi West 12.7 mph 20.7 mph N/A Snow Light Snow
8:10 AM 35.6 °F 27.5 °F 26.6 °F 70% 29.94 in 10.0 mi West 11.5 mph 20.7 mph N/A   Overcast
8:40 AM 35.6 °F 28.6 °F 26.6 °F 70% 29.94 in 10.0 mi West 9.2 mph 19.6 mph N/A   Overcast
8:58 AM 35.4 °F 26.8 °F 26.6 °F 70% 29.98 in 10.0 mi West 12.7 mph 21.9 mph 0.00 in   Overcast
9:28 AM 35.6 °F 27.5 °F 26.6 °F 70% 29.95 in 10.0 mi WSW 11.5 mph 20.7 mph N/A   Overcast
9:38 AM 35.6 °F 26.6 °F 26.6 °F 70% 29.95 in 10.0 mi West 13.8 mph 19.6 mph N/A   Overcast
9:58 AM 36.5 °F 28.2 °F 27.1 °F 69% 29.98 in 10.0 mi West 12.7 mph 23.0 mph N/A   Overcast
10:03 AM 37.4 °F 30.3 °F 26.6 °F 65% 29.95 in 10.0 mi West 10.4 mph 21.9 mph N/A   Overcast
10:16 AM 39.2 °F 30.5 °F 26.6 °F 61% 29.96 in 10.0 mi WSW 16.1 mph 25.3 mph N/A   Overcast
10:58 AM 39.6 °F 30.6 °F 25.0 °F 56% 29.99 in 10.0 mi West 17.3 mph 26.5 mph N/A   Mostly Cloudy
11:27 AM 42.8 °F 36.2 °F 24.8 °F 49% 29.97 in 10.0 mi WSW 12.7 mph 26.5 mph N/A   Scattered Clouds
11:32 AM 42.8 °F 34.5 °F 24.8 °F 49% 29.97 in 10.0 mi WNW 18.4 mph 21.9 mph N/A   Scattered Clouds
11:34 AM 42.8 °F 34.5 °F 24.8 °F 49% 29.97 in 10.0 mi WNW 18.4 mph 25.3 mph N/A   Scattered Clouds
11:39 AM 42.8 °F 35.8 °F 23.0 °F 46% 29.97 in 10.0 mi WSW 13.8 mph 25.3 mph N/A   Scattered Clouds
11:50 AM 42.8 °F 35.1 °F 23.0 °F 46% 29.97 in 10.0 mi WNW 16.1 mph 25.3 mph N/A   Scattered Clouds
11:51 AM 42.8 °F 35.1 °F 23.0 °F 46% 29.97 in 10.0 mi WNW 16.1 mph 25.3 mph N/A   Scattered Clouds
11:58 AM 43.3 °F 35.2 °F 23.9 °F 46% 30.00 in 10.0 mi West 18.4 mph 25.3 mph N/A   Scattered Clouds
12:58 PM 47.1 °F - 23.5 °F 40% 29.99 in 10.0 mi WSW 12.7 mph 25.3 mph N/A   Partly Cloudy
1:58 PM 48.7 °F - 20.5 °F 33% 29.99 in 10.0 mi West 12.7 mph 28.8 mph N/A   Partly Cloudy
2:58 PM 50.5 °F - 18.9 °F 29% 29.98 in 10.0 mi WNW 17.3 mph 28.8 mph N/A   Clear
3:58 PM 51.3 °F - 17.6 °F 26% 29.98 in 10.0 mi West 16.1 mph 34.5 mph N/A   Clear
4:01 PM 51.8 °F - 17.6 °F 26% 29.96 in 10.0 mi WNW 16.1 mph 34.5 mph N/A   Clear
4:43 PM 51.8 °F - 19.4 °F 28% 29.97 in 10.0 mi West 15.0 mph 28.8 mph N/A   Scattered Clouds
4:58 PM 50.7 °F - 18.7 °F 28% 30.00 in 10.0 mi West 18.4 mph 33.4 mph N/A   Scattered Clouds
5:58 PM 50.9 °F - 20.7 °F 30% 30.02 in 10.0 mi WNW 13.8 mph 25.3 mph N/A   Mostly Cloudy
6:58 PM 50.4 °F - 21.0 °F 32% 30.04 in 10.0 mi West 11.5 mph 20.7 mph N/A   Scattered Clouds
7:58 PM 47.7 °F - 22.3 °F 37% 30.06 in 10.0 mi West 6.9 mph - N/A   Clear
8:58 PM 44.8 °F - 23.7 °F 44% 30.07 in 10.0 mi West 2.3 mph - N/A   Clear
9:58 PM 41.4 °F 39.4 °F 25.3 °F 53% 30.10 in 10.0 mi WSW 3.5 mph - N/A   Clear
10:58 PM 40.3 °F 38.2 °F 26.8 °F 59% 30.11 in 10.0 mi SW 3.5 mph - N/A   Scattered Clouds
11:58 PM 39.4 °F - 27.0 °F 61% 30.11 in 10.0 mi SW 2.3 mph - N/A   Clear